Weather History for Menominee, MI

Change the Weather History Date:

Sunday, August 17, 2014

  Actual Average Record
Temperature  
Mean Temperature 57 °F -  
Max Temperature 66 °F 81 °F 96 °F (1988)
Min Temperature 48 °F 56 °F 42 °F (1981)
Degree Days  
Heating Degree Days 8    
Growing Degree Days 7 (Base 50)    
Moisture  
Dew Point 51 °F    
Average Humidity 80    
Maximum Humidity 94    
Minimum Humidity 64    
Precipitation  
Precipitation 0.00 in - - ()
Sea Level Pressure  
Sea Level Pressure 30.03 in    
Wind  
Wind Speed 6 mph (NE)    
Max Wind Speed 14 mph    
Max Gust Speed 20 mph    
Visibility 9 miles    
Events      
Averages and records for this station are not official NWS values.
T = Trace of Precipitation, MM = Missing Value Source: NWS Daily Summary

Daily Weather History Graph

Daily Weather History Graph

Search for Another Location

Airport:

Trip Planner

Search our weather history database for the weather conditions in past years. The results will help you decide how hot, cold, wet, or windy it might be!

Date:

Astronomy

Aug. 17, 2014 Rise Set
Actual Time 5:54 AM CDT 7:53 PM CDT
Civil Twilight 5:22 AM CDT 8:25 PM CDT
Nautical Twilight 4:43 AM CDT 9:04 PM CDT
Astronomical Twilight 4:00 AM CDT 9:47 PM CDT
Moon 11:59 PM CDT (8/17) 2:01 PM CDT (8/17)
Length of Visible Light 15h 03m
Length of Day
13h 59m
Waning Gibbous, 48% of the Moon is Illuminated
Aug 17
Waning Gibbous
Aug 25
New
Sep 2
First Quarter
Sep 8
Full
Sep 15
Last Quarter

Hourly Weather History & Observations

Time (CDT) Temp. Dew Point Humidity Pressure Visibility Wind Dir Wind Speed Gust Speed Precip Events Conditions
12:15 AM 55.4 °F 51.8 °F 88% 30.01 in 10.0 mi NE 6.9 mph - N/A   Clear
12:35 AM 55.4 °F 50.0 °F 82% 30.01 in 10.0 mi NE 5.8 mph - N/A   Clear
12:55 AM 55.4 °F 50.0 °F 82% 30.01 in 10.0 mi NE 5.8 mph - N/A   Clear
1:15 AM 53.6 °F 48.2 °F 82% 30.00 in 10.0 mi NE 6.9 mph - N/A   Clear
1:35 AM 53.6 °F 48.2 °F 82% 30.00 in 10.0 mi NNE 5.8 mph - N/A   Clear
1:55 AM 53.6 °F 48.2 °F 82% 30.01 in 10.0 mi NE 4.6 mph - N/A   Clear
2:15 AM 53.6 °F 48.2 °F 82% 30.01 in 10.0 mi NNE 3.5 mph - N/A   Clear
2:35 AM 53.6 °F 48.2 °F 82% 30.01 in 10.0 mi NNW 4.6 mph - N/A   Clear
2:55 AM 51.8 °F 48.2 °F 88% 30.01 in 10.0 mi NNW 4.6 mph - N/A   Clear
3:15 AM 51.8 °F 46.4 °F 82% 30.02 in 10.0 mi WNW 3.5 mph - N/A   Clear
3:35 AM 51.8 °F 48.2 °F 88% 30.02 in 10.0 mi NW 3.5 mph - N/A   Clear
3:55 AM 51.8 °F 46.4 °F 82% 30.01 in 10.0 mi NNW 5.8 mph - N/A   Clear
4:15 AM 51.8 °F 48.2 °F 88% 30.02 in 10.0 mi NNW 4.6 mph - N/A   Clear
4:35 AM 51.8 °F 46.4 °F 82% 30.02 in 10.0 mi NNW 4.6 mph - N/A   Clear
4:55 AM 50.0 °F 46.4 °F 87% 30.02 in 10.0 mi NNW 5.8 mph - N/A   Clear
5:15 AM 50.0 °F 46.4 °F 87% 30.03 in 10.0 mi North 6.9 mph - N/A   Clear
5:35 AM 50.0 °F 46.4 °F 87% 30.03 in 10.0 mi NNW 4.6 mph - N/A   Clear
5:55 AM 50.0 °F 46.4 °F 87% 30.04 in 10.0 mi NNW 5.8 mph - N/A   Clear
6:15 AM 48.2 °F 46.4 °F 93% 30.04 in 10.0 mi North 3.5 mph - N/A   Clear
6:35 AM 48.2 °F 46.4 °F 93% 30.05 in 8.0 mi NNE 4.6 mph - N/A   Mostly Cloudy
6:55 AM 50.0 °F 46.4 °F 87% 30.05 in 10.0 mi North 6.9 mph - N/A   Overcast
7:15 AM 51.8 °F 48.2 °F 88% 30.06 in 10.0 mi North 6.9 mph - N/A   Overcast
7:35 AM 51.8 °F 48.2 °F 88% 30.06 in 10.0 mi NNE 4.6 mph - N/A   Overcast
7:55 AM 53.6 °F 48.2 °F 82% 30.06 in 10.0 mi NE 8.1 mph - N/A   Overcast
8:15 AM 53.6 °F 50.0 °F 88% 30.06 in 10.0 mi NE 6.9 mph - N/A   Overcast
8:35 AM 53.6 °F 50.0 °F 88% 30.06 in 10.0 mi NE 5.8 mph - N/A   Overcast
8:55 AM 55.4 °F 51.8 °F 88% 30.06 in 10.0 mi North 5.8 mph - N/A   Overcast
9:15 AM 57.2 °F 51.8 °F 82% 30.06 in 10.0 mi NE 6.9 mph - N/A   Overcast
9:35 AM 57.2 °F 51.8 °F 82% 30.07 in 10.0 mi NNE 5.8 mph - N/A   Overcast
9:55 AM 59.0 °F 51.8 °F 77% 30.07 in 10.0 mi NNE 5.8 mph - N/A   Overcast
10:15 AM 60.8 °F 53.6 °F 77% 30.07 in 10.0 mi ENE 10.4 mph - N/A   Overcast
10:35 AM 60.8 °F 53.6 °F 77% 30.07 in 10.0 mi East 9.2 mph - N/A   Overcast
10:55 AM 62.6 °F 53.6 °F 72% 30.07 in 10.0 mi East 12.7 mph 17.3 mph N/A   Overcast
11:15 AM 62.6 °F 53.6 °F 72% 30.07 in 10.0 mi East 13.8 mph 19.6 mph N/A   Overcast
11:35 AM 64.4 °F 53.6 °F 68% 30.07 in 10.0 mi East 12.7 mph 18.4 mph N/A   Overcast
11:55 AM 64.4 °F 53.6 °F 68% 30.07 in 10.0 mi East 13.8 mph 18.4 mph N/A   Overcast
12:15 PM 64.4 °F 53.6 °F 68% 30.06 in 10.0 mi East 12.7 mph - N/A   Overcast
12:35 PM 62.6 °F 53.6 °F 72% 30.06 in 10.0 mi East 13.8 mph 19.6 mph N/A   Overcast
12:55 PM 62.6 °F 53.6 °F 72% 30.06 in 10.0 mi ENE 10.4 mph 17.3 mph N/A   Overcast
1:15 PM 62.6 °F 53.6 °F 72% 30.06 in 10.0 mi East 11.5 mph - N/A   Overcast
1:35 PM 62.6 °F 55.4 °F 77% 30.06 in 10.0 mi East 13.8 mph - N/A   Overcast
1:55 PM 64.4 °F 55.4 °F 73% 30.05 in 10.0 mi ENE 12.7 mph - N/A   Overcast
2:15 PM 64.4 °F 53.6 °F 68% 30.05 in 10.0 mi East 12.7 mph - N/A   Overcast
2:35 PM 64.4 °F 53.6 °F 68% 30.05 in 10.0 mi East 13.8 mph - N/A   Overcast
2:55 PM 64.4 °F 53.6 °F 68% 30.04 in 10.0 mi East 10.4 mph - N/A   Mostly Cloudy
3:15 PM 66.2 °F 53.6 °F 64% 30.03 in 10.0 mi East 9.2 mph - N/A   Scattered Clouds
3:35 PM 64.4 °F 53.6 °F 68% 30.03 in 10.0 mi ENE 10.4 mph - N/A   Partly Cloudy
3:55 PM 64.4 °F 53.6 °F 68% 30.03 in 10.0 mi East 9.2 mph - N/A   Scattered Clouds
4:15 PM 64.4 °F 53.6 °F 68% 30.02 in 10.0 mi East 10.4 mph - N/A   Partly Cloudy
4:35 PM 64.4 °F 53.6 °F 68% 30.02 in 10.0 mi East 6.9 mph - N/A   Partly Cloudy
5:15 PM 64.4 °F 53.6 °F 68% 30.01 in 10.0 mi East 5.8 mph - N/A   Partly Cloudy
5:35 PM 64.4 °F 53.6 °F 68% 30.01 in 10.0 mi East 6.9 mph - N/A   Clear
5:55 PM 64.4 °F 53.6 °F 68% 30.01 in 10.0 mi ESE 5.8 mph - N/A   Clear
6:15 PM 64.4 °F 53.6 °F 68% 30.01 in 10.0 mi East 3.5 mph - N/A   Clear
6:35 PM 64.4 °F 53.6 °F 68% 30.01 in 10.0 mi East 8.1 mph - N/A   Clear
6:55 PM 64.4 °F 53.6 °F 68% 30.01 in 10.0 mi ENE 3.5 mph - N/A   Clear
7:15 PM 62.6 °F 53.6 °F 72% 30.01 in 10.0 mi ENE 5.8 mph - N/A   Clear
7:35 PM 62.6 °F 53.6 °F 72% 30.00 in 10.0 mi ENE 4.6 mph - N/A   Clear
7:55 PM 60.8 °F 53.6 °F 77% 30.00 in 9.0 mi NNE 3.5 mph - N/A   Clear
8:15 PM 59.0 °F 53.6 °F 82% 30.00 in 10.0 mi NE 3.5 mph - N/A   Clear
8:35 PM 57.2 °F 53.6 °F 88% 30.00 in 10.0 mi Calm Calm - N/A   Clear
8:55 PM 57.2 °F 53.6 °F 88% 30.01 in 10.0 mi NNW 3.5 mph - N/A   Clear
9:15 PM 55.4 °F 53.6 °F 94% 30.00 in 10.0 mi Calm Calm - N/A   Clear
9:35 PM 55.4 °F 51.8 °F 88% 30.01 in 8.0 mi Calm Calm - N/A   Clear
9:55 PM 53.6 °F 51.8 °F 94% 30.00 in 8.0 mi Calm Calm - N/A   Clear
10:15 PM 53.6 °F 50.0 °F 88% 29.99 in 9.0 mi Calm Calm - N/A   Clear
10:35 PM 53.6 °F 50.0 °F 88% 29.99 in 1.2 mi Calm Calm - N/A   Clear
10:55 PM 51.8 °F 48.2 °F 88% 29.99 in 6.0 mi Calm Calm - N/A   Clear
11:15 PM 51.8 °F 48.2 °F 88% 29.97 in 1.8 mi Calm Calm - N/A   Clear
11:35 PM 51.8 °F 48.2 °F 88% 29.97 in 0.8 mi Calm Calm - N/A   Unknown
11:55 PM 51.8 °F 48.2 °F 88% 29.97 in 7.0 mi Calm Calm - N/A   Clear